Location: Buckeye Ditch
(40.9104°N, 122.9517°W)
Time: 19:52:59
(UTC+00:00)

Vanguard 1 - Pass Details

Date: 26 May 2025
Orbit: 649 x 3822 km, 34.3° (Epoch: 15 June)

Event Time Altitude Azimuth Distance (km) Brightness Sun altitude
Rises 06:17:15 0° 279° (W) 5,823 14.5 -22.7°
Reaches altitude 10° 06:22:59 10° 265° (W) 4,156 13.5 -23.2°
Maximum altitude 06:29:29 19° 225° (SW) 2,737 12.1 -23.8°
Enters shadow 06:30:53 18° 212° (SSW) 2,633 11.9 -23.9°
